DELTA 1 DEB, 25270

Orbit data source: Space-Track

DELTA 1 DEB, 25270 is space debris in LEO originally from a launch on Thu, 04 Jul 1968 UTC launched from the Air Force Western Test Range (AFWTR). Debris objects in space refer to the collection of defunct objects orbiting the Earth. Examples of debris include non-operational satellites, rocket bodies, and fragments generated from explosions, collisions, or faulty payload assembly.

Loading next visibility...
Identifier
25270, 1968-055E
Orbit
LEO
Country
Flag of USUS
Related business
Manufacturer
Unknown
Mission
Spacecraft
Bus & Motor
Unknown
Mass
Unknown
Launch date (UTC)
1968-07-04 (57 years ago)
Launch vehicle
Unknown
Launch site
Air Force Western Test Range (AFWTR)
Object type
Payload
Rocket body
Debris
Shape & HBR
Unknown shape, 0.1 m
Radar Cross Section
Small (<0.1 m²)

Expand to show TLE details & history
Last TLE update: 10 hours ago

TLE from 10 hours ago
0 DELTA 1 DEB
1 25270U 68055E   25308.91208623  .00002293  00000-0  44264-2 0  9997
2 25270 120.5751  18.1242 2217130 213.7773 130.0068 10.03568442422383
Epoch: 2025-11-04T21:53Z
TLE epoch observation values (Epoch: 2025-11-04T21:53:24.250Z)
Latitude
-0°
Longitude
5.38085°
Altitude
4,208.217 km
Speed
5.605 km/s
True Right ascension
01h 12m 29s
True Declination
0° 00' 00"
Sunlit
Object was in full shadow at epoch
Visualization orbit readout
Latitude
Unknown
Longitude
Unknown
Altitude
Unknown
Speed
Unknown
Apparent Right ascension
Unknown
Apparent Declination
Unknown
Sunlit
N/A
Visualization observer readout
Local Sidereal Time
03:45:32
Azimuth
Unknown
Elevation
Unknown
Doppler factor
Unknown
Orbital elements
Apogee altitude
4,713.066 km
Perigee altitude
687.466 km
Semi-major axis
9,078.403 km
Eccentricity
0.22171
Inclination
120.5751°
RAAN
18.1242°
Arg. of periapsis
213.7773°
True anomaly
146.29579°
Mean anomaly
130.0068°
Eccentric anomaly
138.435°
Mean motion
2.50916 °/min
Orbital period
143.47 mins
BSTAR
0.0044264
Loading maneuver chart data...
Computing Atmospheric mass density...
Loading historical data...
Loading historical data...
Loading historical data...
Loading historical data...
Loading historical data...
Loading historical data...
Loading historical data...

Documentation

Showing up to 5 results
|